19.04.2024;05:00;64
19.04.2024;04:00;64
19.04.2024;03:00;64
19.04.2024;02:00;61
19.04.2024;01:00;65
19.04.2024;00:00;62
18.04.2024;23:00;60
18.04.2024;22:00;52
18.04.2024;21:00;54
18.04.2024;20:00;62
18.04.2024;19:00;71
18.04.2024;18:00;71
18.04.2024;17:00;64
18.04.2024;16:00;72
18.04.2024;15:00;79
18.04.2024;14:00;81
18.04.2024;13:00;74
18.04.2024;12:00;65
18.04.2024;11:00;61
18.04.2024;10:00;47
18.04.2024;09:00;45
18.04.2024;08:00;45
18.04.2024;07:00;50
18.04.2024;06:00;49
18.04.2024;05:00;54
18.04.2024;04:00;54
18.04.2024;03:00;57
18.04.2024;02:00;67
18.04.2024;01:00;70
18.04.2024;00:00;63
17.04.2024;23:00;68
17.04.2024;22:00;73
17.04.2024;21:00;73
17.04.2024;20:00;68
17.04.2024;19:00;53
17.04.2024;18:00;60
17.04.2024;17:00;69
17.04.2024;16:00;66
17.04.2024;15:00;72
17.04.2024;14:00;71
17.04.2024;13:00;73
17.04.2024;12:00;62
17.04.2024;11:00;55
17.04.2024;10:00;52
17.04.2024;09:00;50
17.04.2024;08:00;52
17.04.2024;07:00;63
17.04.2024;06:00;72
